Location: Unspecified
(0.0000°N, 0.0000°E)
Time: 14:45:51
(UTC+00:00)

NAPA-2 - Pass Details

Date: 22 February 2026
Orbit: 356 x 361 km, 97.7° (Epoch: 6 March)

Event Time Altitude Azimuth Distance (km) Brightness Sun altitude
Rises 05:28:11 0° 158° (SSE) 2,180 ? -11.2°
Reaches altitude 10° 05:30:12 10° 149° (SSE) 1,331 ? -10.7°
Maximum altitude 05:32:51 37° 79° (E) 567 ? -10.0°
Drops below altitude 10° 05:35:29 10° 9° (N) 1,321 ? -9.4°
Sets 05:37:28 0° 0° (N) 2,161 ? -8.9°
